Weather observations for the past three days for
Cotulla, Cotulla-La Salle County Airport
Imperial (Metric)
Date Time (cdt) Wind (mph) Vis. (mi.) Weather Sky Cond. Temperature (ºF) Relative Humidity Wind Chill (°F) Heat Index (°F) Pressure Precipitation (in)
Air Dwpt 6 hour altimeter (in) sea level (mb) 1 hr 3 hr 6 hr
Max. Min.
15 21:53 SE 20 G 29 10.00 Fair CLR 90 66.9 47% 93 29.8 1008.1
15 20:53 SE 21 G 30 10.00 Fair and Breezy CLR 93.9 66.9 41% 98 29.77 1007.3
15 19:53 SE 21 G 32 10.00 Partly Cloudy and Breezy FEW080 SCT100 97 66.9 37% 101 29.75 1006.6
15 18:53 SE 14 10.00 Mostly Cloudy BKN085 102 62.1 105.1 93.9 27% 104 29.74 1006.2
15 17:53 E 13 G 22 10.00 Mostly Cloudy BKN085 104 60.1 24% 105 29.75 1006.4
15 16:53 SE 10 10.00 Fair CLR 100.9 60.1 26% 102 29.77 1007.1
15 15:53 SE 12 10.00 Partly Cloudy SCT080 102.9 62.1 26% 105 29.79 1008.0
15 14:53 S 9 10.00 A Few Clouds FEW070 100 64 31% 103 29.82 1008.9
15 13:53 SE 12 G 18 10.00 A Few Clouds FEW070 99 64.9 33% 102 29.85 1009.9
15 12:53 S 8 G 18 10.00 Partly Cloudy SCT055 95 66.9 97 79 40% 99 29.88 1010.9
15 11:53 SE 8 G 22 10.00 A Few Clouds FEW046 93.9 68 43% 98 29.9 1011.6
15 10:53 Calm 10.00 Fair CLR 90 69.1 50% 95 29.92 1012.2
15 09:53 SE 7 10.00 A Few Clouds FEW025 87.1 71.1 59% 93 29.93 1012.7
15 08:53 SE 9 10.00 Partly Cloudy SCT017 84 73 70% 90 29.93 1012.7
15 07:53 E 7 10.00 Fair CLR 81 73 77% 86 29.92 1012.2
15 06:53 E 5 10.00 Fair CLR 79 73 82.9 79 82% 82 29.91 1011.8
15 05:53 SE 3 10.00 A Few Clouds FEW020 80.1 73 79% 84 29.9 1011.4
15 04:53 SE 6 10.00 Mostly Cloudy BKN015 BKN020 81 73 77% 86 29.89 1011.3
15 03:53 SE 7 10.00 Mostly Cloudy BKN019 82 73 74% 87 29.89 1011.3
15 02:53 SE 7 10.00 Fair CLR 82 72 72% 87 29.9 1011.5
15 01:53 SE 10 10.00 Fair CLR 82.9 71.1 67% 88 29.9 1011.7
15 00:53 SE 14 10.00 Fair CLR 84.9 69.1 100.9 84.9 59% 89 29.92 1012.2
14 23:53 SE 14 10.00 Fair CLR 87.1 68 53% 91 29.91 1012.0
14 22:53 SE 18 G 24 10.00 Fair CLR 89.1 66 47% 92 29.9 1011.5
14 21:53 SE 22 G 32 10.00 Fair and Breezy CLR 91 68 47% 95 29.86 1010.1
14 20:53 E 15 10.00 Fair CLR 96.1 64 35% 98 29.83 1009.2
14 19:53 E 9 10.00 Fair CLR 99 62.1 30% 100 29.82 1008.7
14 18:53 E 8 10.00 A Few Clouds FEW080 100 62.1 102.9 96.1 29% 102 29.81 1008.5
14 17:53 Calm 10.00 Partly Cloudy SCT080 102 61 26% 103 29.81 1008.5
14 16:53 E 13 G 18 10.00 Mostly Cloudy BKN080 102 62.1 27% 104 29.83 1009.2
14 15:53 Vrbl 5 G 21 10.00 Partly Cloudy SCT075 100.9 63 29% 103 29.85 1009.9
14 14:53 E 8 G 22 10.00 Mostly Cloudy FEW070 BKN080 100 64 31% 103 29.87 1010.6
14 13:53 SE 15 G 25 10.00 A Few Clouds FEW060 99 64.9 33% 102 29.9 1011.5
14 12:53 E 12 10.00 A Few Clouds FEW055 97 66.9 97 79 37% 101 29.92 1012.3
14 11:53 S 7 10.00 Fair CLR 93 68 44% 97 29.94 1012.8
14 10:53 S 10 G 17 10.00 Mostly Cloudy BKN037 91 69.1 49% 96 29.94 1013.1
14 09:53 SE 8 10.00 A Few Clouds FEW029 88 71.1 57% 94 29.96 1013.6
14 08:53 SE 8 10.00 Fair CLR 84.9 73.9 70% 92 29.96 1013.5
14 07:53 E 8 10.00 Fair CLR 82 73.9 77% 88 29.95 1013.1
14 06:53 SE 5 10.00 Fair CLR 79 73 86 79 82% 82 29.92 1012.4
14 05:53 E 6 10.00 Fair CLR 80.1 73 79% 84 29.91 1011.9
14 04:53 SE 5 10.00 Fair CLR 80.1 73 79% 84 29.91 1011.8
14 03:53 E 6 10.00 Fair CLR 81 72 74% 85 29.91 1011.8
14 02:53 SE 7 10.00 Fair CLR 82.9 73 72% 89 29.91 1011.7
14 01:53 SE 9 10.00 Fair CLR 84.9 71.1 63% 90 29.9 1011.5
14 00:53 SE 13 10.00 Fair CLR 86 70 102 86 59% 91 29.9 1011.5
13 23:53 SE 15 10.00 Fair CLR 88 71.1 57% 94 29.89 1011.4
13 22:53 SE 17 G 23 10.00 Fair CLR 91 71.1 52% 98 29.88 1010.9
13 21:53 SE 13 10.00 Fair CLR 93 69.1 46% 98 29.86 1010.1
13 20:53 E 12 10.00 Fair CLR 95 68 41% 100 29.84 1009.6
13 19:53 E 10 10.00 Fair CLR 98.1 66.9 36% 103 29.83 1009.2
13 18:53 E 9 10.00 Fair CLR 102 63 105.1 96.1 28% 104 29.82 1008.7
13 17:53 E 9 10.00 Fair CLR 102.9 64 28% 106 29.82 1008.9
13 16:53 NE 6 G 18 10.00 A Few Clouds FEW110 102.9 64 28% 106 29.84 1009.4
13 15:53 Calm 10.00 Partly Cloudy FEW065 SCT080 100 66 33% 104 29.85 1010.0
13 14:53 Vrbl 5 10.00 A Few Clouds FEW065 100 68 35% 106 29.88 1010.8
13 13:53 SE 9 10.00 Partly Cloudy SCT055 98.1 68 38% 103 29.9 1011.5
13 12:53 Calm 10.00 Fair CLR 97 68 97 79 39% 102 29.92 1012.2
13 11:53 SE 6 10.00 A Few Clouds FEW070 93.9 66 40% 97 29.93 1012.6
13 10:53 SE 7 10.00 Partly Cloudy SCT070 90 71.1 54% 96 29.94 1012.9
13 09:53 SE 8 10.00 Mostly Cloudy FEW019 BKN065 86 73.9 67% 94 29.95 1013.2
13 08:53 E 9 10.00 Fair CLR 84 75 74% 92 29.94 1012.9
13 07:53 E 8 10.00 A Few Clouds FEW080 FEW100 81 75 82% 87 29.92 1012.1
13 06:53 E 7 10.00 Fair CLR 79 75 82.9 79 88% 83 29.9 1011.6
13 05:53 E 5 10.00 Fair CLR 79 73.9 85% 83 29.89 1011.1
13 04:53 E 6 10.00 Partly Cloudy SCT095 80.1 73.9 82% 85 29.88 1010.8
13 03:53 E 6 10.00 Mostly Cloudy BKN090 BKN110 81 73 77% 86 29.87 1010.5
13 02:53 E 6 10.00 Mostly Cloudy BKN090 81 73 77% 86 29.87 1010.6
13 01:53 E 7 10.00 Fair CLR 82 73 74% 87 29.88 1010.9
13 00:53 SE 9 10.00 Fair CLR 82.9 73 100.9 82.9 72% 89 29.89 1011.4
12 23:53 SE 8 10.00 Fair CLR 84.9 73 68% 92 29.91 1011.9
12 22:53 SE 9 10.00 Fair CLR 86 72 63% 92 29.9 1011.4
Date Time (cdt) Wind (mph) Vis. (mi.) Weather Sky Cond. Air Dwpt Max. Min. Relative Humidity Wind Chill (°F) Heat Index (°F) altimeter (in) sea level (mb) 1 hr 3 hr 6 hr
6 hour
Temperature (ºF) Pressure Precipitation (in)